Regional Weather Roundup
Issued by NWS

Home | Current Version | Previous Version | Text Only | Print | Product List | Glossary On
Versions: 1 2 3 4 5 6 7 8 9 10 11 12 13 14 15 16 17 18 19 20 21 22 23 24 25 26 27 28 29 30 31 32 33 34 35 36 37 38 39 40 41 42 43 44 45 46 47 48 49 50
000
ASUS43 KDTX 220301
RWRMI
MICHIGAN HOURLY REGIONAL WEATHER ROUNDUP
NATIONAL WEATHER SERVICE DETROIT/PONTIAC MI
1000 PM EST SUN JAN 21 2018

NOTE: "FAIR" INDICATES FEW OR NO CLOUDS BELOW 12,000 FEET WITH NO
SIGNIFICANT WEATHER AND/OR OBSTRUCTION TO VISIBILITY.

MIZ047>049-052>055-059>063-066>070-074>076-081>083-220400-
SOUTHEAST LOWER MICHIGAN

CITY           SKY/WX    TMP DP  RH WIND       PRES   REMARKS
ADRIAN         FOG       37  36  96 E3        30.00F VSB 1/4
ANN ARBOR      FOG       38  38 100 NE3       30.00F VSB 1/2
BAD AXE        CLOUDY    34  34  98 SE3       30.03F FOG
CARO           CLOUDY    36  35  97 E5        30.00F FOG     WCI  32
DETROIT CITY   FOG       37  37 100 E3        30.03S VSB 1/4
DETROIT        FOG       38  38 100 E5        30.02F VSB 1/4 WCI  34
FLINT          CLOUDY    38  37  97 SE7       30.02S FOG     WCI  33
GROSSE ILE     FOG       37  36  99 E3        30.01F VSB 1/2
HILLSDALE      SNOW      39  37  93 SE5       29.96F VSB 1/4
HOWELL         FOG       37  37 100 E5        29.99F VSB 1/4 WCI  34

CITY           SKY/WX    TMP DP  RH WIND       PRES   REMARKS
JACKSON        FOG       38  37  97 E5        29.98S VSB 1/2 WCI  34
LAMBERTVILLE   FOG       38  38  97 CALM      30.00F VSB 1/4
LANSING        FOG       37  37 100 E6        29.99F VSB 1/2 WCI  32
LAPEER         CLOUDY    36  36  98 CALM      30.02S FOG
MONROE         FOG       36  35  93 CALM      30.01S VSB 1/2
MT. CLEMENS    DRZL/FOG  36  35  96 NE5       30.03S VSB 1/8 WCI  32
PONTIAC        FOG       36  36 100 E3        30.00S VSB 1/4
PORT HOPE        N/A     30  29  96 SE3       30.03R
PORT HURON     FOG       36  34  93 CALM      30.04S VSB 1/4
TRI CITIES     CLOUDY    34  34 100 CALM      30.02S FOG
MIDLAND        CLOUDY    35  34  99 CALM      30.01S FOG
TROY           FOG       37  37  97 CALM      30.04S VSB 1/2
SAGINAW HB     CLOUDY    34  34 100 CALM      30.01S FOG
$$
MIZ043>046-050>051-056>058-064>065-071>073-077>080-220400-
SOUTHWEST LOWER MICHIGAN

CITY           SKY/WX    TMP DP  RH WIND       PRES   REMARKS
BATTLE CREEK   FOG       39  39 100 E3        29.96F VSB 1/2
BENTON HARBOR  FOG       43  41  93 SE8       29.92F VSB 1/2
BIG RAPIDS     CLOUDY    35  34  94 SE3       29.97F FOG
COLDWATER      FOG       41  41 100 SE3       29.96S VSB 1/2
FREMONT        CLOUDY    37  36  94 E3        29.96F FOG
HOLLAND        FOG       38  37  97 E6        29.94F VSB 1/4 WCI  33
GRAND RAPIDS   LGT RAIN  37  37 100 E7        29.96F VSB 3/4 WCI  32
IONIA          FOG       37  37 100 E5        29.97F VSB 3/4 WCI  33
KALAMAZOO      FOG       41  40  96 SE3       29.95F VSB<1/4
LUDINGTON      CLOUDY    37  37 100 E6        29.97R FOG     WCI  33
MARSHALL       FOG       38  37  99 CALM      29.97S VSB 1/2
MOUNT PLEASANT CLOUDY    37  36  96 CALM      30.00S FOG
MUSKEGON       CLOUDY    38  36  92 E7        29.95F FOG     WCI  33
SOUTH HAVEN    FOG       41  39  95 E3        29.92F VSB 3/4
$$
MIZ016>042-220400-
NORTHERN LOWER MICHIGAN

CITY           SKY/WX    TMP DP  RH WIND       PRES   REMARKS
ALPENA         FOG       32  32 100 NE3       30.03S VSB 3/4
BEAVER ISLAND  CLOUDY    33  33  99 CALM      30.02S FOG
BELLAIRE       CLOUDY    33  32  96 CALM      30.02S
CADILLAC       CLOUDY    35  34  97 NE3       29.97F FOG
CHARLEVOIX     CLOUDY    34  34 100 CALM      30.03F FOG
FRANKFORT      CLOUDY    37  35  91 E6        29.98F WCI  33
GAYLORD        CLOUDY    35  31  85 NE3       29.98F
GRAYLING       CLOUDY    31  29  92 CALM      30.01R
HARBOR SPRINGS CLOUDY    34  32  93 NE5       30.01F WCI  30
HOUGHTON LAKE  CLOUDY    32  30  92 E3        30.00S FOG
MANISTEE       CLOUDY    37  34  89 E7        29.97F WCI  32
OSCODA         FOG       31  31  99 CALM      30.03S VSB 1/4
PELLSTON       CLOUDY    34  32  92 NE3       30.02F
ROGERS CITY    CLOUDY    32  32  99 E5        30.04S FOG     WCI  27
TRAVERSE CITY  FAIR      33  32  96 CALM      30.00F FOG
$$
MIZ007>008-015-220400-
EASTERN UPPER MICHIGAN

CITY           SKY/WX    TMP DP  RH WIND       PRES   REMARKS
KINROSS        CLOUDY    33  30  88 E7        30.04S WCI  27
MACKINAC ISLAN FOG       33  33 100 E7        30.03R VSB 1/4 WCI  27
NEWBERRY       CLOUDY    32  31  97 CALM      30.02S
S. S. MARIE    MOCLDY    35  31  85 E3        30.04S
$$
MIZ004>006-011>014-085-220400-
CENTRAL UPPER MICHIGAN

CITY           SKY/WX    TMP DP  RH WIND       PRES   REMARKS
ESCANABA       CLOUDY    34  31  88 N6        30.03R WCI  29
MENOMINEE      MOCLDY    33  31  92 NE9       30.01S FOG     WCI  25
SAWYER-GWINN   SNOW      30  30 100 NE10      30.03R VSB 1/4 WCI  21
$$
MIZ001>003-009>011-084-220400-
WESTERN UPPER MICHIGAN

CITY           SKY/WX    TMP DP  RH WIND       PRES   REMARKS
IRON MOUNTAIN  CLOUDY    33  30  88 NE7       30.01R WCI  27
HOUGHTON       CLOUDY    29  25  85 NE8       30.06R WCI  21
COPPER HARBOR    N/A     29  26  89 E10G16    30.10R WCI  20
IRONWOOD       CLOUDY    30  29  96 E6        30.03S WCI  24
$$

ABBREVIATIONS USED IN REMARKS
   TC - TEMPERATURE IN CELSIUS
  WCI - WIND CHILL INDEX
   HX - HEAT INDEX
  VSB - VISIBILITY





USA.gov is the U.S. government's official web portal to all federal, state and local government web resources and services.